sat.trackr.live / text

‹ back to catalog

STARLINK-35538

NORAD 66475 · 2025-262V

PAYLOAD ACTIVE UNKNOWN

§ Identity

Operator
Country
US
Launch date
2025-11-15
Launch site
AFETR
Launch vehicle
Mass (kg)
RCS (m²)

Purposes: comms

External: N2YO · Heavens-Above · Gunter

§ Orbital elements

Epoch: 2026-09-20T08:22:05.388672Z

Period
94.27 min
Inclination
43.0016°
Eccentricity
0.0001115
Mean motion
15.27585670 rev/d
Perigee alt
482.3 km
Apogee alt
483.8 km
Semi-major
6,861.2 km
B*
3.3380e-4
RAAN
277.1225°
Arg perigee
274.9149°
Mean anomaly
85.1575°
Rev number
4,867

§ Raw data

STARLINK-355381 66475U 25262V   26263.34867348  .00008936  00000+0  33380-3 0  99922 66475  43.0016 277.1225 0001115 274.9149  85.1575 15.27585670 48676

JSON: /api/v1/satellites/66475 · /tle

For live sub-satellite position, see the globe view (requires WebGL).

§ Visibility from observer

Set your observer location to see the next 7 days of passes ≥ 10°. The values pass through the URL so the page stays shareable.

No JS? Fill the form by hand. The geolocation button needs JavaScript.